STARLINK-31946, 59940

Orbit data source: Space-Track

STARLINK-31946, 59940 is a payload satellite owned by SpaceX/Seattle (US) in LEO that was launched on Sat, 01 Jun 2024 UTC via an FALCON 9 launch vehicle from the Air Force Eastern Test Range (AFETR). Payload-class satellites include a variety of spacecraft equipped with specific instruments for various scientific and technological missions. These include communications satellites like Starlink; space stations such as the ISS; scientific satellites like the Hubble; Earth observation satellites from companies like Planet Labs, Umbra, and HawkEye 360; GPS; miniature CubeSats for education and research; and military/defense satellites.

Loading next visibility...
Identifier
59940, 2024-106U
Orbit
LEO
Country
Flag of USUS
Related business
Manufacturer
SpaceX/Seattle
Mission
Operational spacecraft
Bus & Motor
STARLINK V2M, Unknown motor
Mass
730 kg wet, ~700 kg dry
Launch date (UTC)
2024-06-01 (1 year ago)
Launch vehicle
FALCON 9
Launch site
Air Force Eastern Test Range (AFETR)
Object type
Payload
Rocket body
Debris
Shape & HBR
Unknown
Radar Cross Section
Large (>1 m²)

Expand to show TLE details & history
Last TLE update: 2 days ago

TLE from 2 days ago
0 STARLINK-31946
1 59940U 24106U   25259.33897227  .00001272  00000-0  55740-4 0  9991
2 59940  43.0029 237.5468 0001129 255.2674 104.8052 15.27586408 64484
Epoch: 2025-09-16T08:08Z
TLE epoch observation values (Epoch: 2025-09-16T08:08:07.204Z)
Latitude
-0.00004°
Longitude
119.98604°
Altitude
483.004 km
Speed
7.626 km/s
True Right ascension
15h 50m 11s
True Declination
0° 00' 00"
Sunlit
Object was in daylight at epoch
Visualization orbit readout
Latitude
Unknown
Longitude
Unknown
Altitude
Unknown
Speed
Unknown
Apparent Right ascension
Unknown
Apparent Declination
Unknown
Sunlit
N/A
Visualization observer readout
Local Sidereal Time
14:11:33
Azimuth
Unknown
Elevation
Unknown
Doppler factor
Unknown
Orbital elements
Apogee altitude
485.749 km
Perigee altitude
484.2 km
Semi-major axis
6,863.112 km
Eccentricity
0.00011
Inclination
43.0029°
RAAN
237.5468°
Arg. of periapsis
255.2674°
True anomaly
104.81771°
Mean anomaly
104.8052°
Eccentric anomaly
104.81145°
Mean motion
3.81735 °/min
Orbital period
94.31 mins
BSTAR
0.00005574
Loading maneuver chart data...
Computing Atmospheric mass density...
Loading historical data...
Loading historical data...
Loading historical data...
Loading historical data...
Loading historical data...
Loading historical data...
Loading historical data...

Documentation

Showing up to 5 results
|